This is the latest recevied weather packets stored in our database for station/object AB8Y-13. If no packets are shown the sender has not sent any weather packets the latest 10 day(s).
| Time | Temp. | Humidity | Pressure | Rain* | Wind** | Luminosity | Snow |
|---|---|---|---|---|---|---|---|
| 1777790643 | 0.56° C | 82% | 1014.6 hPa | 0 mm | - | 0 W/m² | - |
| 1777790339 | 0° C | 84% | 1014.7 hPa | 0 mm | - | 0 W/m² | - |
| 1777790037 | 0° C | 84% | 1014.7 hPa | 0 mm | - | 0 W/m² | - |
| 1777789735 | 0° C | 80% | 1014.7 hPa | 0 mm | - | 0 W/m² | - |
| 1777789434 | 0.56° C | 79% | 1014.8 hPa | 0 mm | - | 0 W/m² | - |
| 1777789131 | 0.56° C | 75% | 1014.8 hPa | 0 mm | - | 0 W/m² | - |
| 1777788828 | 0.56° C | 76% | 1014.7 hPa | 0 mm | - | 0 W/m² | - |
| 1777788523 | 0.56° C | 75% | 1015 hPa | 0 mm | - | 0 W/m² | - |
| 1777788218 | 0.56° C | 76% | 1014.8 hPa | 0 mm | - | 0 W/m² | - |
| 1777787914 | 0.56° C | 75% | 1014.8 hPa | 0 mm | - | 0 W/m² | - |
| 1777787610 | 1.11° C | 76% | 1015 hPa | 0 mm | - | 0 W/m² | - |
| 1777787306 | 1.11° C | 73% | 1015.2 hPa | 0 mm | - | 0 W/m² | - |
| 1777787002 | 1.11° C | 74% | 1015.1 hPa | 0 mm | - | 0 W/m² | - |
| 1777786700 | 1.67° C | 74% | 1015 hPa | 0 mm | - | 0 W/m² | - |
| 1777786398 | 1.67° C | 72% | 1015.3 hPa | 0 mm | - | 0 W/m² | - |
| 1777786094 | 2.22° C | 71% | 1015.1 hPa | 0 mm | - | 0 W/m² | - |
| 1777785791 | 2.22° C | 65% | 1015.3 hPa | 0 mm | - | 0 W/m² | - |
| 1777785487 | 2.22° C | 68% | 1015.3 hPa | 0 mm | - | 0 W/m² | - |
| 1777785183 | 2.22° C | 69% | 1015.2 hPa | 0 mm | - | 0 W/m² | - |
| 1777784880 | 2.22° C | 72% | 1015.1 hPa | 0 mm | - | 0 W/m² | - |
| 1777784576 | 2.22° C | 71% | 1015.2 hPa | 0 mm | - | 0 W/m² | - |
| 1777784274 | 2.22° C | 72% | 1015.3 hPa | 0 mm | - | 0 W/m² | - |
| 1777783972 | 2.22° C | 70% | 1015.3 hPa | 0 mm | - | 0 W/m² | - |
| 1777783668 | 2.78° C | 70% | 1015.3 hPa | 0 mm | - | 0 W/m² | - |
| 1777783365 | 2.78° C | 71% | 1015.4 hPa | 0 mm | - | 0 W/m² | - |
* Rain latest hour (hover to see other rain measurements)
** Current wind speed in m/s (hover to see current wind gust speed)